Weather History for Southern Pines, NC

Change the Weather History Date:

Saturday, July 26, 2014

  Actual Average Record
Temperature  
Mean Temperature 81 °F -  
Max Temperature 91 °F 86 °F 100 °F (2005)
Min Temperature 71 °F 67 °F 62 °F (2013)
Cooling Degree Days 16    
Growing Degree Days 31 (Base 50)    
Moisture  
Dew Point 67 °F    
Average Humidity 68    
Maximum Humidity 94    
Minimum Humidity 38    
Precipitation  
Precipitation 0.00 in - - ()
Sea Level Pressure  
Sea Level Pressure 30.00 in    
Wind  
Wind Speed 3 mph (SW)    
Max Wind Speed 8 mph    
Max Gust Speed -    
Visibility 8 miles    
Events      
Averages and records for this station are not official NWS values.
T = Trace of Precipitation, MM = Missing Value Source: NWS Daily Summary

Daily Weather History Graph

Daily Weather History Graph

Search for Another Location

Airport:

Trip Planner

Search our weather history database for the weather conditions in past years. The results will help you decide how hot, cold, wet, or windy it might be!

Date:

Astronomy

Jul. 26, 2014 Rise Set
Actual Time 6:22 AM EDT 8:25 PM EDT
Civil Twilight 5:53 AM EDT 8:54 PM EDT
Nautical Twilight 5:19 AM EDT 9:28 PM EDT
Astronomical Twilight 4:41 AM EDT 10:05 PM EDT
Moon 6:10 AM EDT (7/26) 8:02 PM EDT (7/26)
Length of Visible Light 15h 00m
Length of Day
14h 03m
Waning Crescent, 0% of the Moon is Illuminated
Jul 26
Waning Crescent
Jul 26
New
Aug 3
First Quarter
Aug 10
Full
Aug 17
Last Quarter

Hourly Weather History & Observations

Time (EDT) Temp. Heat Index Dew Point Humidity Pressure Visibility Wind Dir Wind Speed Gust Speed Precip Events Conditions
12:15 AM 73.4 °F - 66.2 °F 78% 30.04 in 10.0 mi SE 3.5 mph - N/A   Scattered Clouds
12:35 AM 73.4 °F - 66.2 °F 78% 30.04 in 10.0 mi South 5.8 mph - N/A   Partly Cloudy
1:15 AM 73.4 °F - 68.0 °F 83% 30.03 in 10.0 mi SSE 5.8 mph - N/A   Mostly Cloudy
1:35 AM 73.4 °F - 69.8 °F 88% 30.03 in 7.0 mi SSE 4.6 mph - N/A   Overcast
1:55 AM 73.4 °F - 69.8 °F 88% 30.03 in 2.5 mi South 3.5 mph - N/A   Overcast
2:15 AM 73.4 °F - 69.8 °F 88% 30.02 in 3.0 mi South 3.5 mph - N/A   Overcast
2:35 AM 73.4 °F - 69.8 °F 88% 30.02 in 6.0 mi Calm Calm - N/A   Overcast
2:55 AM 73.4 °F - 69.8 °F 88% 30.01 in 5.0 mi South 3.5 mph - N/A   Overcast
3:15 AM 73.4 °F - 69.8 °F 88% 30.01 in 7.0 mi SSW 3.5 mph - N/A   Overcast
3:35 AM 73.4 °F - 69.8 °F 88% 30.00 in 7.0 mi Calm Calm - N/A   Overcast
3:55 AM 73.4 °F - 69.8 °F 88% 30.00 in 7.0 mi Calm Calm - N/A   Overcast
4:15 AM 73.4 °F - 69.8 °F 88% 30.01 in 9.0 mi Calm Calm - N/A   Overcast
4:35 AM 73.4 °F - 69.8 °F 88% 30.01 in 10.0 mi SSW 3.5 mph - N/A   Overcast
4:55 AM 73.4 °F - 69.8 °F 88% 30.01 in 10.0 mi Calm Calm - N/A   Mostly Cloudy
5:15 AM 71.6 °F - 69.8 °F 94% 30.01 in 7.0 mi SE 3.5 mph - N/A   Partly Cloudy
5:35 AM 71.6 °F - 68.0 °F 88% 30.01 in 5.0 mi Calm Calm - N/A   Clear
5:55 AM 71.6 °F - 68.0 °F 88% 30.02 in 5.0 mi Calm Calm - N/A   Clear
6:15 AM 71.6 °F - 68.0 °F 88% 30.02 in 6.0 mi Calm Calm - N/A   Partly Cloudy
6:35 AM 71.6 °F - 68.0 °F 88% 30.02 in 5.0 mi SE 4.6 mph - N/A   Scattered Clouds
6:55 AM 71.6 °F - 69.8 °F 94% 30.02 in 4.0 mi SE 3.5 mph - N/A   Mostly Cloudy
7:15 AM 71.6 °F - 69.8 °F 94% 30.03 in 5.0 mi SE 3.5 mph - N/A   Overcast
7:35 AM 73.4 °F - 69.8 °F 88% 30.03 in 5.0 mi SE 3.5 mph - N/A   Overcast
7:55 AM 73.4 °F - 69.8 °F 88% 30.04 in 7.0 mi Calm Calm - N/A   Scattered Clouds
8:15 AM 75.2 °F - 69.8 °F 83% 30.04 in 9.0 mi Calm Calm - N/A   Mostly Cloudy
8:35 AM 75.2 °F - 69.8 °F 83% 30.04 in 10.0 mi Calm Calm - N/A   Mostly Cloudy
8:55 AM 77.0 °F - 71.6 °F 83% 30.05 in 10.0 mi West 3.5 mph - N/A   Overcast
9:15 AM 78.8 °F - 71.6 °F 78% 30.05 in 10.0 mi Calm Calm - N/A   Mostly Cloudy
9:35 AM 78.8 °F - 69.8 °F 74% 30.05 in 10.0 mi Calm Calm - N/A   Partly Cloudy
9:55 AM 80.6 °F 84.6 °F 71.6 °F 74% 30.04 in 10.0 mi Calm Calm - N/A   Partly Cloudy
10:15 AM 80.6 °F 83.9 °F 69.8 °F 70% 30.04 in 10.0 mi SSW 3.5 mph - N/A   Mostly Cloudy
11:55 AM 84.2 °F 87.3 °F 68.0 °F 58% 30.04 in 10.0 mi NE 3.5 mph - N/A   Mostly Cloudy
12:15 PM 87.8 °F 90.4 °F 66.2 °F 49% 30.04 in 10.0 mi WSW 3.5 mph - N/A   Mostly Cloudy
1:55 PM 87.8 °F 90.4 °F 66.2 °F 49% 30.01 in 10.0 mi Calm Calm - N/A   Mostly Cloudy
2:15 PM 87.8 °F 90.4 °F 66.2 °F 49% 30.01 in 10.0 mi Calm Calm - N/A   Mostly Cloudy
2:35 PM 87.8 °F 90.4 °F 66.2 °F 49% 30.01 in 3.0 mi WNW 3.5 mph - N/A   Overcast
2:55 PM 87.8 °F 90.4 °F 66.2 °F 49% 29.99 in 10.0 mi WSW 3.5 mph - N/A   Overcast
3:15 PM 89.6 °F 92.2 °F 66.2 °F 46% 29.99 in 2.0 mi NW 4.6 mph - N/A   Scattered Clouds
3:35 PM 89.6 °F 93.4 °F 68.0 °F 49% 29.98 in 10.0 mi West 3.5 mph - N/A   Partly Cloudy
3:55 PM 89.6 °F 92.2 °F 66.2 °F 46% 29.98 in 10.0 mi West 3.5 mph - N/A   Mostly Cloudy
4:15 PM 91.4 °F 93.2 °F 64.4 °F 41% 29.98 in 10.0 mi WSW 8.1 mph - N/A   Mostly Cloudy
4:35 PM 91.4 °F 92.1 °F 62.6 °F 38% 29.97 in 10.0 mi West 5.8 mph - N/A   Mostly Cloudy
4:55 PM 91.4 °F 93.2 °F 64.4 °F 41% 29.96 in 10.0 mi WSW 6.9 mph - N/A   Partly Cloudy
5:15 PM 91.4 °F 92.1 °F 62.6 °F 38% 29.96 in 10.0 mi West 4.6 mph - N/A   Scattered Clouds
5:35 PM 91.4 °F 92.1 °F 62.6 °F 38% 29.96 in 10.0 mi West 4.6 mph - N/A   Scattered Clouds
5:55 PM 89.6 °F 89.5 °F 60.8 °F 38% 29.96 in 10.0 mi West 4.6 mph - N/A   Partly Cloudy
6:15 PM 89.6 °F 89.5 °F 60.8 °F 38% 29.95 in 10.0 mi West 4.6 mph - N/A   Clear
6:35 PM 89.6 °F 90.1 °F 62.6 °F 40% 29.95 in 10.0 mi WSW 6.9 mph - N/A   Clear
6:55 PM 89.6 °F 90.1 °F 62.6 °F 40% 29.95 in 10.0 mi West 5.8 mph - N/A   Clear
7:15 PM 87.8 °F 88.5 °F 62.6 °F 43% 29.96 in 10.0 mi West 5.8 mph - N/A   Clear
7:35 PM 87.8 °F 88.5 °F 62.6 °F 43% 29.96 in 10.0 mi WSW 6.9 mph - N/A   Clear
7:55 PM 84.2 °F 85.6 °F 64.4 °F 51% 29.96 in 10.0 mi WSW 4.6 mph - N/A   Clear
8:15 PM 82.4 °F 83.9 °F 64.4 °F 54% 29.97 in 10.0 mi WSW 3.5 mph - N/A   Clear
8:35 PM 82.4 °F 83.9 °F 64.4 °F 54% 29.97 in 10.0 mi WSW 3.5 mph - N/A   Clear
8:55 PM 80.6 °F 82.7 °F 66.2 °F 61% 29.97 in 10.0 mi SW 3.5 mph - N/A   Clear
9:15 PM 80.6 °F 82.7 °F 66.2 °F 61% 29.98 in 10.0 mi SW 3.5 mph - N/A   Clear
9:35 PM 78.8 °F - 66.2 °F 65% 29.99 in 10.0 mi SW 4.6 mph - N/A   Clear
9:55 PM 78.8 °F - 66.2 °F 65% 29.99 in 10.0 mi SW 4.6 mph - N/A   Clear
10:15 PM 78.8 °F - 66.2 °F 65% 30.00 in 10.0 mi SW 4.6 mph - N/A   Clear
10:35 PM 78.8 °F - 66.2 °F 65% 30.00 in 10.0 mi SSW 5.8 mph - N/A   Clear
10:55 PM 77.0 °F - 66.2 °F 69% 30.00 in 10.0 mi SSW 5.8 mph - N/A   Clear
11:15 PM 78.8 °F - 66.2 °F 65% 29.99 in 10.0 mi SSW 4.6 mph - N/A   Clear
11:35 PM 77.0 °F - 66.2 °F 69% 29.99 in 10.0 mi SSW 6.9 mph - N/A   Clear
11:55 PM 78.8 °F - 66.2 °F 65% 29.98 in 10.0 mi SSW 5.8 mph - N/A   Clear